User: anonymous   Login
Location: Montr�al
(45.5000°N, 73.5830°W)
Time: 22:34:39
(UTC-04:00)
Language:

Cosmos 2369 - Orbit

View from above orbital plane
View from above orbital plane
View from above satellite
View from above satellite

Ground track
Ground track

The orbit data is extracted from the following two-line orbital elements,

1 26069U 00006A   16181.54882232 -.00000356  00000-0 -16415-3 0  9996
2 26069  70.9941  17.7927 0009590  31.9380 328.2321 14.13335406846295
Epoch (UTC): 29 June 2016 13:10:18
Eccentricity: 0.0009590
inclination: 70.9941°
perigee height: 841 km
apogee height: 855 km
right ascension of ascending node: 17.7927°
argument of perigee: 31.9380°
revolutions per day: 14.13335406
mean anomaly at epoch: 328.2321°
orbit number at epoch: 84629

The dashed part of the orbit path shows where the satellite is in the earth's shadow,  

DLR